Weather in St. Julian's

Malta     35°55′10″N   14°29′18″E
temp.,
°C
wind,
m/s
gust,
m/s
humid.,
%
clouds,
%
prec.,
mm/h
press.,
hPa
HPBL,
m
16 may, sun
sun1623:00+17wnw7117427 0.0 1017292
02:00+17nnw587794 0.0 1016190
05:00+17wnw5774100 0.0 1015202
08:00+18w677177 0.0 1016281
11:00+19wnw676754 0.0 1016287
14:00+19w68654 0.0 1016281
17:00+20w57634 0.0 1015186
20:00+19wsw44660 0.0 101444
17 may, mon
mon1723:00+18sw33680 0.0 101534
02:00+18sw33720 0.0 101431
05:00+18wsw33750 0.0 101335
08:00+19wsw34720 0.0 101456
11:00+21w33663 0.0 1014100
14:00+22wnw01640 0.0 1014116
17:00+22wnw34630 0.0 1013152
20:00+20wnw56701 0.0 101454
18 may, tue
tue1823:00+19wnw56743 0.0 101561
02:00+19nw510821 0.0 1014139
05:00+19w56841 0.0 101495
08:00+19nw69820 0.0 1015164
11:00+19nnw468523 0.0 1017198
14:00+19nnw348333 0.0 1016174
17:00+20nw44780 0.0 1016210
20:00+19nw45824 0.0 1016151
19 may, wed
wed1923:00+18wnw33800 0.0 101734
02:00+18wnw447797 0.0 101681
05:00+18w338363 0.0 101598
08:00+19nw79805 0.0 1017237
11:00+19nw687621 0.0 1018253
14:00+19wnw710735 0.0 1017299
17:00+20wnw9147165 0.0 1016274
20:00+19nnw8157529 0.0 1017339
20 may, thu
thu2023:00+19nnw59755 0.0 1018185
02:00+19nw711732 0.0 1017245
05:00+18wnw8128231 0.0 1017365
08:00+18nw9127527 0.0 1018614
11:00+18nw1012764 0.0 1018611
14:00+18wnw11137310 0.0 1018579
17:00+18wnw131576100 0.0 1017580
20:00+18wnw11157829 0.0 1017541